Regional Weather Roundup
Issued by NWS

Home | Current Version | Previous Version | Text Only | Print | Product List | Glossary Off
Versions: 1 2 3 4 5 6 7 8 9 10 11 12 13 14 15 16 17 18 19 20 21 22 23 24 25 26 27 28 29 30 31 32 33 34 35 36 37 38 39 40 41 42 43 44 45 46 47 48 49 50

000
ASUS43 KDTX 310810
RWRMI
MICHIGAN HOURLY REGIONAL WEATHER ROUNDUP
NATIONAL WEATHER SERVICE DETROIT/PONTIAC MI
400 AM EDT MON AUG 31 2015

NOTE: "FAIR" INDICATES FEW OR NO CLOUDS BELOW 12,000 FEET WITH NO
SIGNIFICANT WEATHER AND/OR OBSTRUCTION TO VISIBILITY.

MIZ047>049-052>055-059>063-066>070-074>076-081>083-310900-
SOUTHEAST LOWER MICHIGAN

CITY           SKY/WX    TMP DP  RH WIND       PRES   REMARKS
ADRIAN         FOG       62  61  96 CALM      30.05S VSB 1/4
ALMA             N/A     63  62  98 S5        30.03F FOG
ANN ARBOR      FOG       59  59 100 CALM      30.04R VSB<1/4
BAD AXE        FOG       63  62  99 CALM      30.02F VSB 1/2
CARO           FOG       60  60 100 CALM      30.02S VSB 1/4
DETROIT CITY   CLEAR     70  67  90 W3        30.03S
DETROIT        PTCLDY    69  67  93 CALM      30.03F FOG
FLINT          FOG       62  59  90 CALM      30.04R VSB 1/2
GROSSE ILE     CLEAR     68  66  94 CALM      30.02S FOG
HILLSDALE      FOG       62  62 100 CALM      30.05F VSB<1/4
HOWELL         FOG       63  62  99 CALM      30.04S VSB 1/2

CITY           SKY/WX    TMP DP  RH WIND       PRES   REMARKS
JACKSON        FOG       60  60 100 CALM      30.05S VSB 1/4
LAMBERTVILLE   FOG       65  62  92 CALM      30.04S VSB 3/4
LANSING        CLOUDY    63  62  97 W6        30.04F
LAPEER         FOG       58  58 100 CALM      30.04R VSB 1/4
MASON          FOG       61  59  92 CALM      30.05S VSB 1/2
MONROE         FOG       64  63  97 CALM      30.03S VSB 1/2
MT. CLEMENS    CLEAR     64  64 100 CALM      30.00F FOG
PONTIAC        CLEAR     64  63  96 CALM      30.03S FOG
PORT HOPE        N/A     66  64  93 CALM      30.00R
PORT HURON     FOG       61  61 100 CALM      30.02S VSB 1/2
TRI CITIES     CLOUDY    67  64  90 SW5       30.02F FOG
MIDLAND        CLOUDY    64  64  97 CALM      30.02R FOG
TROY           MOCLDY    70  67  90 CALM      30.04F
SAGINAW HB     CLEAR     61  61 100 SW3       30.02S FOG
$$
MIZ043>046-050>051-056>058-064>065-071>073-077>080-310900-
SOUTHWEST LOWER MICHIGAN

CITY           SKY/WX    TMP DP  RH WIND       PRES   REMARKS
BATTLE CREEK   MOCLDY    61  59  93 S3        30.05F FOG
BENTON HARBOR  CLEAR     59  57  93 CALM      30.04S FOG
BIG RAPIDS     FOG       55  55  98 CALM      30.04R VSB 1/2
COLDWATER      FOG       62  62 100 CALM      30.05S VSB 1/2
FREMONT        FOG       60  60 100 CALM      30.04R VSB 1/4
HOLLAND        FOG       62  58  86 CALM      30.04F VSB 1/4
GRAND RAPIDS   CLOUDY    65  64  97 W6        30.05S FOG
IONIA          CLOUDY    65  65 100 W5        30.04S FOG
KALAMAZOO      FOG       59  57  93 CALM      30.05S VSB 1/4
LUDINGTON      CLEAR     68  65  89 SW9       30.03R
MARSHALL       FOG       61  60  98 CALM      30.05R VSB 1/2
MOUNT PLEASANT FOG       63  61  94 CALM      30.02S VSB 1/2
MUSKEGON       FOG       61  58  90 CALM      30.04S VSB 1/4
SOUTH HAVEN    CLEAR     57  56  97 CALM      30.04S FOG
$$
MIZ016>042-310900-
NORTHERN LOWER MICHIGAN

CITY           SKY/WX    TMP DP  RH WIND       PRES   REMARKS
ALPENA         CLEAR     64  62  93 VRB3      29.98F
BEAVER ISLAND  PTCLDY    65  64  96 SW9       29.97S FOG
BELLAIRE       PTCLDY    58  56  96 CALM      30.00S FOG
CADILLAC       CLEAR     60  59  97 SW5       30.03S
CHARLEVOIX     CLEAR     63  63  98 CALM      30.01S
FRANKFORT      MOCLDY    65  64  94 CALM      30.01R
GAYLORD        CLEAR     60  60 100 SW5       30.01S
GRAYLING       CLEAR     60  59  97 CALM      30.03R FOG
HARBOR SPRINGS CLOUDY    65  63  93 SW6       29.99R
HOUGHTON LAKE  CLEAR     63  60  90 W6        30.03R
MANISTEE       CLOUDY    57  54  88 CALM      30.02S VSB<1/4
OSCODA         FOG       60  60 100 SW5       29.99S VSB 1/2
PELLSTON       PTCLDY    65  62  90 W9        29.98S
ROGERS CITY    CLEAR     64  62  91 W9        29.98S
TRAVERSE CITY  MOCLDY    64  61  90 VRB3      29.99R
$$
MIZ007>008-015-310900-
EASTERN UPPER MICHIGAN

CITY           SKY/WX    TMP DP  RH WIND       PRES   REMARKS
KINROSS        CLOUDY    64  63  94 SW7       29.95S
MACKINAC ISLAN CLOUDY    65  64  94 SW9       29.96F FOG
NEWBERRY       MOCLDY    62  62  99 SW7       29.94S FOG
S. S. MARIE    CLOUDY    65  63  93 SW5       29.95R
MUNISING         N/A     67  62  84 CALM      29.93R
$$
MIZ004>006-011>014-085-310900-
CENTRAL UPPER MICHIGAN

CITY           SKY/WX    TMP DP  RH WIND       PRES   REMARKS
MANISTIQUE     CLEAR     63  62  97 SW5       29.95R FOG
ESCANABA       CLOUDY    57  55  94 CALM      29.95R VSB<1/4
MENOMINEE      CLEAR     63  61  94 SW6       29.97R
SAWYER-GWINN   CLEAR     61  60  96 SW5       29.96R
$$
MIZ001>003-009>011-084-310900-
WESTERN UPPER MICHIGAN

CITY           SKY/WX    TMP DP  RH WIND       PRES   REMARKS
IRON MOUNTAIN  CLEAR     62  60  93 N3        29.96R
HOUGHTON       CLEAR     67  61  81 W7        29.90S
IRONWOOD       PTCLDY    64  63  94 SW3       29.92R
$$

ABBREVIATIONS USED IN REMARKS
   TC - TEMPERATURE IN CELSIUS
  WCI - WIND CHILL INDEX
   HX - HEAT INDEX
  VSB - VISIBILITY



USA.gov is the U.S. government's official web portal to all federal, state and local government web resources and services.